1515754800.81,48364,8.94,73580.5,-0.03,-19.47,-19.41,0,*58
1515754802.05,48365,8.94,73580.5,-0.03,-19.41,-19.41,0,*5F
1515754803.27,48366,8.94,73580.8,-0.01,-19.37,-19.51,0,*5E
1515754804.52,48367,8.94,73580.5,-0.03,-19.41,-19.31,0,*5A
1515754805.77,48368,8.94,73586.3,-0.03,-19.57,-19.57,0,*52
1515754807.02,48369,8.94,73578.5,-0.03,-19.41,-19.41,0,*53
1515754808.27,48370,8.94,73582.0,-0.03,-19.27,-19.23,0,*5F
1515754809.52,48371,8.94,73584.5,-0.03,-19.27,-19.27,0,*5A
1515754810.8,48372,8.94,73580.0,-0.01,-19.27,-19.23,0,*5F
1515754812.02,48373,8.94,73582.5,-0.03,-19.23,-19.13,0,*5B
1515754813.25,48374,8.94,73580.5,-0.03,-19.23,-19.13,0,*5C
1515754814.5,48375,8.94,73582.8,-0.03,-19.23,-19.27,0,*5A
1515754815.72,48376,8.94,73580.5,-0.01,-19.37,-19.37,0,*5F
1515754816.97,48377,8.94,73578.3,-0.03,-19.31,-19.31,0,*5C
1515754818.22,48378,8.94,73578.5,-0.03,-19.27,-19.23,0,*57
1515754819.47,48379,8.94,73578.0,-0.01,-19.17,-19.23,0,*57
1515754820.68,48380,8.94,73576.0,-0.03,-19.03,-18.89,0,*57
1515754821.9,48381,8.94,73580.3,-0.03,-19.07,-18.93,0,*59
1515754823.12,48382,8.94,73576.8,-0.01,-19.17,-19.03,0,*51
1515754824.33,48383,8.94,73576.8,-0.01,-19.03,-19.03,0,*55
1515754825.55,48384,8.94,73578.5,0.01,-19.27,-19.17,0,*7C
1515754826.76,48385,8.94,73580.8,0.01,-19.23,-19.07,0,*78
1515754827.95,48386,8.94,73576.8,0.01,-18.73,-18.73,0,*7D
1515754829.16,48387,8.94,73576.3,0.01,-19.03,-18.89,0,*7F
1515754830.34,48388,8.94,73578.0,0.05,-19.17,-19.03,0,*72
1515754831.55,48389,8.94,73580.3,0.05,-19.23,-18.99,0,*76
1515754832.74,48390,8.94,73578.0,0.01,-19.07,-19.03,0,*7E
1515754833.92,48391,8.94,73580.3,0.05,-19.17,-19.03,0,*7A
1515754835.16,48392,8.94,73580.0,0.05,-19.23,-19.23,0,*7C
1515754836.44,48393,8.94,73578.8,0.07,-19.27,-19.31,0,*78
1515754837.65,48394,8.94,73582.8,0.07,-19.13,-19.07,0,*7D
1515754838.87,48395,8.94,73582.0,0.07,-18.99,-18.99,0,*79
1515754840.06,48396,8.94,73582.0,0.09,-19.07,-19.13,0,*71
1515754841.33,48397,8.94,73582.3,0.07,-19.27,-19.27,0,*7B
1515754842.56,48398,8.94,73582.3,0.07,-19.17,-19.13,0,*70
1515754843.83,48399,8.94,73576.3,0.07,-19.31,-19.31,0,*75
1515754845.05,48400,8.94,73576.5,0.07,-19.17,-19.13,0,*76
1515754846.23,48401,8.94,73582.0,0.09,-19.07,-18.99,0,*7B
1515754847.45,48402,8.94,73580.5,0.09,-19.47,-19.31,0,*7F
1515754848.71,48403,8.94,73580.5,0.07,-19.41,-19.31,0,*76
1515754849.96,48404,8.94,73580.3,0.09,-19.57,-19.57,0,*78
1515754851.17,48405,8.94,73580.0,0.09,-19.41,-19.47,0,*7F
1515754852.4,48406,8.94,73582.5,0.09,-19.27,-19.17,0,*79
1515754853.67,48407,8.94,73586.5,0.07,-19.27,-19.27,0,*75
1515754854.91,48408,8.94,73582.5,0.09,-19.41,-19.31,0,*73
1515754856.13,48409,8.94,73578.3,0.09,-19.27,-19.17,0,*76
1515754857.35,48410,8.94,73582.3,0.09,-19.13,-18.93,0,*74
1515754858.55,48411,8.94,73582.5,0.09,-19.17,-19.13,0,*78
1515754859.79,48412,8.94,73580.3,0.09,-19.31,-19.27,0,*78
1515754861.04,48413,8.94,73580.0,0.13,-19.41,-19.51,0,*44
1515754862.25,48414,8.94,73580.0,0.13,-19.07,-19.07,0,*42
1515754863.46,48415,8.94,73578.0,0.11,-19.07,-19.03,0,*45
1515754864.73,48416,8.94,73580.8,0.11,-19.41,-19.41,0,*42
1515754865.95,48417,8.94,73580.5,0.11,-19.51,-19.51,0,*43
1515754867.2,48418,8.94,73584.0,0.13,-19.65,-19.51,0,*49
1515754868.44,48419,8.94,73582.8,0.11,-19.41,-19.37,0,*4C
1515754869.69,48420,8.94,73580.8,0.11,-19.57,-19.51,0,*41
1515754870.93,48421,8.94,73580.3,0.13,-19.23,-19.03,0,*46
1515754872.15,48422,8.94,73582.3,0.13,-19.07,-19.07,0,*47
1515754873.38,48423,8.94,73582.5,0.17,-19.23,-19.07,0,*44
1515754874.61,48424,8.94,73578.5,0.15,-19.37,-19.23,0,*42
1515754875.81,48425,8.94,73582.5,0.15,-19.17,-19.17,0,*46
1515754877.03,48426,8.94,73582.3,0.15,-19.61,-19.47,0,*41
1515754878.23,48427,8.94,73580.8,0.15,-19.47,-19.37,0,*43
1515754879.49,48428,8.94,73578.8,0.15,-19.31,-19.31,0,*4B
1515754880.71,48429,8.94,73582.0,0.15,-19.51,-19.31,0,*4C
1515754881.93,48430,8.94,73580.0,0.17,-19.51,-19.37,0,*40
1515754883.18,48431,8.94,73582.8,0.15,-19.31,-19.23,0,*40
1515754884.4,48432,8.94,73580.3,0.15,-19.65,-19.47,0,*40
1515754885.63,48433,8.94,73580.8,0.15,-19.61,-19.51,0,*42
1515754886.87,48434,8.94,73580.3,0.17,-19.47,-19.31,0,*45
1515754888.14,48435,8.94,73580.3,0.17,-19.65,-19.61,0,*41
1515754889.38,48436,8.94,73582.8,0.17,-19.81,-19.75,0,*4D
1515754890.62,48437,8.94,73580.0,0.17,-19.65,-19.47,0,*47
1515754891.84,48438,8.94,73582.3,0.19,-19.47,-19.41,0,*40
1515754893.06,48439,8.94,73580.0,0.17,-19.75,-19.51,0,*4F
1515754894.3,48440,8.94,73582.3,0.17,-19.75,-19.61,0,*42
1515754895.52,48441,8.94,73582.5,0.17,-19.95,-19.75,0,*48
1515754896.73,48442,8.94,73580.8,0.17,-20.09,-19.95,0,*4A
1515754897.95,48443,8.94,73582.8,0.17,-19.95,-19.91,0,*40
1515754899.17,48444,8.94,73580.8,0.15,-20.25,-20.15,0,*42
1515754900.41,48445,8.94,73580.8,0.17,-19.91,-19.65,0,*49
1515754901.65,48446,8.94,73586.0,0.17,-19.75,-19.61,0,*44
1515754902.87,48447,8.94,73580.8,0.17,-19.75,-19.51,0,*46
1515754904.06,48448,9.0,73584.8,0.19,-20.09,-19.95,0,*4E
1515754905.28,48449,8.94,73582.8,0.17,-20.09,-19.91,0,*45
1515754906.49,48450,8.94,73582.5,0.15,-20.15,-19.99,0,*4A
1515754907.74,48451,8.94,73582.0,0.17,-20.53,-20.43,0,*46
1515754908.96,48452,8.94,73578.5,0.17,-20.43,-20.29,0,*48
1515754910.18,48453,8.94,73580.0,0.17,-20.29,-20.25,0,*49
1515754911.39,48454,8.94,73580.3,0.17,-19.99,-19.91,0,*4A
1515754912.6,48455,8.94,73580.3,0.15,-19.99,-19.95,0,*4D
1515754913.81,48456,8.94,73582.3,0.15,-20.25,-20.15,0,*41
1515754915.03,48457,8.94,73580.5,0.17,-20.09,-19.95,0,*4E
1515754916.27,48458,8.94,73582.0,0.17,-20.15,-19.99,0,*40
1515754917.49,48459,8.94,73582.5,0.15,-19.91,-19.65,0,*46
1515754918.69,48460,8.94,73582.8,0.15,-19.99,-19.95,0,*4B
1515754919.91,48461,8.94,73580.3,0.15,-20.15,-19.95,0,*44
1515754921.11,48462,8.94,73580.5,0.19,-19.91,-19.75,0,*43
1515754922.32,48463,8.94,73580.8,0.17,-20.09,-19.91,0,*4D
1515754923.51,48464,8.94,73582.0,0.15,-20.25,-20.09,0,*4D
1515754924.73,48465,8.94,73580.5,0.15,-20.15,-20.09,0,*4F
1515754925.95,48466,8.94,73586.0,0.15,-19.99,-19.81,0,*48
1515754927.17,48467,9.0,73586.3,0.17,-20.09,-19.91,0,*49
1515754928.38,48468,8.94,73582.8,0.15,-20.29,-20.15,0,*40
1515754929.6,48469,9.0,73584.0,0.15,-20.39,-20.15,0,*40
1515754930.81,48470,8.94,73582.0,0.15,-20.25,-20.15,0,*45
1515754932.01,48471,8.94,73582.8,0.15,-20.39,-20.25,0,*4A
1515754933.24,48472,8.94,73582.8,0.17,-20.29,-20.15,0,*49
1515754934.46,48473,8.94,73582.0,0.17,-20.25,-20.09,0,*49
1515754935.65,48474,8.94,73582.5,0.15,-20.25,-19.99,0,*4F
1515754936.86,48475,8.94,73580.0,0.15,-20.59,-20.43,0,*48
1515754938.09,48476,8.94,73582.0,0.15,-20.53,-20.39,0,*4C
1515754939.29,48477,8.94,73580.3,0.15,-20.25,-20.09,0,*4F
1515754940.48,48478,8.94,73580.8,0.15,-20.09,-19.99,0,*4D
1515754941.71,48479,8.94,73582.0,0.15,-20.53,-20.43,0,*4E
1515754942.93,48480,8.94,73580.3,0.15,-20.15,-19.95,0,*4B
1515754944.13,48481,8.94,73580.0,0.15,-19.99,-19.75,0,*4A
1515754945.32,48482,8.94,73582.3,0.15,-20.25,-19.99,0,*46
1515754946.52,48483,8.94,73582.0,0.15,-20.73,-20.39,0,*44
1515754947.77,48484,8.94,73578.3,0.17,-19.95,-19.81,0,*4A
1515754948.96,48485,8.94,73576.5,0.15,-20.25,-19.99,0,*41
1515754950.2,48486,8.94,73580.8,0.17,-20.15,-20.09,0,*40
1515754951.4,48487,8.94,73584.8,0.15,-20.39,-20.25,0,*43
1515754952.59,48488,8.94,73578.8,0.15,-20.29,-20.09,0,*43
1515754953.78,48489,8.94,73578.3,0.15,-20.09,-19.91,0,*4B
1515754955.0,48490,8.94,73582.5,0.15,-20.09,-19.81,0,*42
1515754956.21,48491,8.94,73582.3,0.15,-20.59,-20.39,0,*4F
1515754957.43,48492,8.94,73580.3,0.15,-20.39,-20.15,0,*44
1515754958.63,48493,8.94,73580.5,0.15,-19.95,-19.75,0,*45
1515754959.87,48494,8.94,73582.3,0.17,-20.53,-20.25,0,*4F
1515754961.09,48495,8.94,73582.3,0.15,-20.09,-19.81,0,*47
1515754962.3,48496,8.94,73580.0,0.17,-20.09,-19.75,0,*4D
1515754963.51,48497,8.94,73582.0,0.17,-20.09,-19.91,0,*46
1515754964.75,48498,8.94,73580.3,0.17,-20.25,-20.15,0,*41
1515754965.99,48499,8.94,73584.0,0.17,-20.39,-20.15,0,*4D
1515754967.23,48500,8.94,73582.3,0.17,-20.53,-20.29,0,*4F
1515754968.47,48501,8.94,73582.3,0.17,-20.15,-19.99,0,*4D
1515754969.68,48502,8.94,73580.0,0.17,-20.25,-19.99,0,*4D
1515754970.91,48503,8.94,73582.3,0.17,-20.29,-20.15,0,*4E
1515754972.14,48504,8.94,73578.8,0.17,-20.43,-20.25,0,*46
1515754973.35,48505,8.94,73576.8,0.17,-20.09,-19.91,0,*4C
1515754974.59,48506,8.94,73580.8,0.17,-20.39,-20.15,0,*4A
1515754975.78,48507,8.94,73578.3,0.19,-20.05,-19.75,0,*46
1515754977.0,48508,8.94,73582.3,0.19,-20.19,-19.91,0,*4E
1515754978.21,48509,8.94,73582.5,0.19,-20.19,-20.05,0,*48
1515754979.41,48510,8.94,73582.0,0.19,-20.09,-19.95,0,*42
1515754980.63,48511,8.94,73580.0,0.21,-20.25,-20.05,0,*45
1515754981.85,48512,8.94,73582.0,0.19,-20.83,-20.63,0,*41
1515754983.08,48513,8.94,73580.0,0.19,-20.53,-20.39,0,*42
1515754984.35,48514,8.94,73582.8,0.21,-20.53,-20.35,0,*42
1515754985.6,48515,8.94,73580.3,0.19,-20.83,-20.53,0,*45
1515754986.83,48516,8.94,73582.5,0.19,-20.39,-20.19,0,*49
1515754988.05,48517,8.94,73580.5,0.19,-20.39,-20.19,0,*48
1515754989.3,48518,8.94,73578.8,0.19,-20.49,-20.35,0,*4E
1515754990.52,48519,8.94,73580.5,0.19,-20.63,-20.35,0,*47
1515754991.75,48520,8.94,73580.0,0.19,-20.69,-20.53,0,*47
1515754992.99,48521,8.94,73580.5,0.19,-20.49,-20.35,0,*44
1515754994.24,48522,8.94,73576.3,0.19,-20.53,-20.35,0,*4C
1515754995.44,48523,8.94,73582.8,0.19,-20.69,-20.39,0,*48
1515754996.69,48524,8.94,73580.0,0.21,-20.79,-20.39,0,*45
1515754997.92,48525,8.94,73580.8,0.19,-20.83,-20.63,0,*45
1515754999.17,48526,9.0,73584.0,0.19,-20.79,-20.53,0,*40
1515755000.39,48527,8.94,73582.5,0.19,-20.49,-20.25,0,*43
1515755001.6,48528,9.0,73580.8,0.19,-20.63,-20.39,0,*49
1515755002.83,48529,8.94,73580.3,0.19,-20.99,-20.63,0,*42
1515755004.06,48530,8.94,73582.3,0.19,-20.63,-20.49,0,*47
1515755005.29,48531,8.94,73580.8,0.19,-20.63,-20.49,0,*46
1515755006.56,48532,8.94,73582.8,0.21,-20.99,-20.79,0,*48
1515755007.81,48533,8.94,73576.0,0.19,-20.79,-20.49,0,*4F
1515755009.01,48534,8.94,73582.0,0.19,-20.89,-20.69,0,*45
1515755010.21,48535,8.94,73580.8,0.19,-20.89,-20.69,0,*44
1515755011.44,48536,8.94,73580.0,0.19,-20.83,-20.63,0,*47
1515755012.69,48537,8.94,73580.0,0.21,-20.83,-20.63,0,*4D
1515755013.92,48538,8.94,73580.5,0.19,-20.99,-20.89,0,*46
1515755015.15,48539,8.94,73582.0,0.19,-20.69,-20.49,0,*44
1515755016.37,48540,8.94,73580.0,0.19,-20.89,-20.83,0,*42
1515755017.64,48541,8.94,73580.5,0.21,-20.99,-20.79,0,*4C
1515755018.88,48542,8.94,73580.5,0.19,-21.03,-20.89,0,*49
1515755020.12,48543,9.0,73582.5,0.17,-21.33,-21.17,0,*43
1515755021.32,48544,8.94,73580.0,0.19,-20.89,-20.63,0,*48
1515755022.54,48545,8.94,73580.3,0.17,-21.09,-20.93,0,*41
1515755023.79,48546,8.94,73578.0,0.17,-21.03,-20.73,0,*46
1515755025.03,48547,8.94,73580.5,0.17,-20.83,-20.73,0,*4E
1515755026.26,48548,8.94,73578.3,0.19,-20.89,-20.79,0,*4F
1515755027.53,48549,8.94,73576.5,0.17,-21.03,-20.83,0,*46
1515755028.8,48550,9.0,73580.0,0.17,-21.03,-20.83,0,*4E
1515755030.0,48551,8.94,73580.0,0.15,-21.09,-20.89,0,*4D
1515755031.22,48552,8.94,73580.5,0.17,-21.17,-20.93,0,*48
1515755032.44,48553,8.94,73580.3,0.17,-21.17,-20.93,0,*49
1515755033.66,48554,8.94,73582.0,0.17,-21.17,-20.93,0,*4E
1515755034.89,48555,8.94,73578.3,0.15,-20.93,-20.83,0,*41
1515755036.1,48556,8.94,73576.5,0.17,-21.17,-21.09,0,*4E
1515755037.32,48557,9.0,73584.0,0.15,-20.73,-20.53,0,*40
1515755038.57,48558,8.94,73582.3,0.17,-20.73,-20.53,0,*4D
1515755039.77,48559,8.94,73578.5,0.15,-20.93,-20.73,0,*42
1515755040.97,48560,9.0,73586.0,0.15,-21.09,-20.89,0,*4F
1515755042.19,48561,8.94,73580.0,0.15,-20.93,-20.83,0,*46
1515755043.44,48562,8.94,73580.3,0.15,-21.03,-20.83,0,*4D
1515755044.63,48563,9.0,73580.3,0.15,-21.09,-21.09,0,*45
1515755045.85,48564,8.94,73578.3,0.15,-21.23,-21.09,0,*4A
1515755047.11,48565,9.0,73584.8,0.15,-21.33,-21.23,0,*42
1515755048.33,48566,8.94,73582.0,0.15,-21.23,-21.17,0,*47
1515755049.55,48567,8.94,73580.0,0.17,-21.17,-21.17,0,*43
1515755050.81,48568,8.94,73582.3,0.15,-21.33,-21.23,0,*4F
1515755052.05,48569,8.94,73582.8,0.17,-21.39,-21.33,0,*47
1515755053.24,48570,8.94,73582.3,0.15,-21.09,-20.93,0,*45
1515755054.49,48571,8.94,73582.5,0.15,-21.03,-20.83,0,*4F
1515755055.68,48572,8.94,73582.3,0.15,-21.09,-21.09,0,*45
1515755056.89,48573,9.0,73580.8,0.15,-21.17,-20.93,0,*49
1515755058.09,48574,8.94,73586.5,0.15,-20.93,-20.89,0,*48
1515755059.3,48575,9.0,73582.5,0.17,-21.09,-21.09,0,*40
1515755060.54,48576,8.94,73582.0,0.17,-21.47,-21.33,0,*40
1515755061.76,48577,9.0,73580.3,0.17,-21.39,-21.39,0,*42
1515755063.03,48578,8.94,73576.3,0.17,-21.33,-21.23,0,*4C
1515755064.25,48579,8.94,73578.8,0.17,-21.47,-21.39,0,*45
1515755065.47,48580,8.94,73582.0,0.17,-21.39,-21.39,0,*4A
1515755066.66,48581,9.0,73582.8,0.15,-21.39,-21.39,0,*49
1515755067.86,48582,8.94,73580.0,0.15,-21.63,-21.47,0,*4C
1515755069.08,48583,8.94,73580.3,0.15,-21.39,-21.33,0,*41
1515755070.32,48584,8.94,73580.0,0.15,-21.33,-21.33,0,*4C
1515755071.53,48585,9.0,73584.5,0.15,-20.93,-20.89,0,*46
1515755072.75,48586,9.0,73582.0,0.15,-20.93,-20.83,0,*4F
1515755073.95,48587,9.0,73580.3,0.15,-21.17,-21.09,0,*40
1515755075.14,48588,9.0,73580.5,0.15,-21.09,-20.93,0,*42
1515755076.37,48589,8.94,73580.8,0.15,-21.33,-21.39,0,*4B
1515755077.58,48590,9.0,73582.0,0.15,-21.39,-21.33,0,*43
1515755078.81,48591,9.0,73580.5,0.13,-21.13,-21.13,0,*4E
1515755080.08,48592,9.0,73580.3,0.13,-20.99,-20.79,0,*43
1515755081.34,48593,9.0,73584.3,0.15,-21.23,-21.23,0,*4A
1515755082.56,48594,8.94,73582.3,0.15,-21.23,-21.09,0,*45
1515755083.81,48595,8.94,73580.3,0.15,-21.23,-21.23,0,*4C
1515755085.06,48596,9.0,73582.5,0.17,-20.93,-20.83,0,*4C
1515755086.3,48597,8.94,73580.0,0.15,-21.33,-21.33,0,*4E
1515755087.53,48598,8.94,73582.0,0.15,-21.23,-21.17,0,*46
1515755088.8,48599,8.94,73580.8,0.17,-21.03,-20.83,0,*4B
1515755090.04,48600,9.0,73580.3,0.17,-21.39,-21.33,0,*4B
1515755091.24,48601,9.0,73582.5,0.15,-21.17,-21.17,0,*42
1515755092.46,48602,9.0,73582.5,0.17,-21.17,-21.17,0,*43
1515755093.68,48603,9.0,73580.0,0.15,-21.39,-21.33,0,*4A
1515755094.89,48604,8.94,73580.0,0.17,-21.09,-21.09,0,*45
1515755096.13,48605,9.0,73582.5,0.17,-21.03,-21.09,0,*4E
1515755097.37,48606,8.94,73580.0,0.17,-21.39,-21.33,0,*4D
1515755098.56,48607,8.94,73580.5,0.15,-21.39,-21.39,0,*44
1515755099.81,48608,9.0,73580.3,0.15,-21.83,-21.67,0,*41
1515755101.04,48609,8.94,73578.5,0.15,-21.67,-21.63,0,*4E
1515755102.26,48610,8.94,73578.5,0.15,-21.67,-21.63,0,*46
1515755103.5,48611,8.94,73576.3,0.15,-21.33,-21.33,0,*43
1515755104.72,48612,9.0,73580.5,0.15,-21.39,-21.33,0,*4A
1515755105.95,48613,8.94,73578.5,0.15,-21.67,-21.63,0,*45
1515755107.17,48614,8.94,73578.3,0.15,-21.53,-21.47,0,*43
1515755108.43,48615,8.94,73578.5,0.15,-21.67,-21.67,0,*47
1515755109.63,48616,9.0,73582.3,0.15,-21.47,-21.47,0,*44
1515755110.85,48617,9.0,73580.5,0.15,-21.53,-21.63,0,*46
1515755112.05,48618,9.0,73582.3,0.15,-21.47,-21.47,0,*4A
1515755113.32,48619,9.0,73582.5,0.17,-21.67,-21.53,0,*4E
1515755114.54,48620,9.0,73580.5,0.17,-21.47,-21.47,0,*43
1515755115.74,48621,8.94,73578.0,0.15,-21.47,-21.47,0,*40
1515755116.96,48622,9.0,73582.8,0.15,-21.67,-21.77,0,*42
1515755118.22,48623,8.94,73576.0,0.15,-21.67,-21.67,0,*42
1515755119.44,48624,8.94,73580.3,0.15,-21.77,-21.97,0,*4B
1515755120.64,48625,8.94,73578.5,0.15,-21.93,-21.93,0,*44
1515755121.86,48626,9.0,73576.5,0.15,-21.83,-21.93,0,*46
1515755123.06,48627,9.0,73582.0,0.15,-21.63,-21.47,0,*40
1515755124.33,48628,9.0,73580.5,0.13,-21.83,-21.83,0,*4F
1515755125.59,48629,8.94,73576.5,0.15,-21.53,-21.53,0,*48
1515755126.84,48630,9.0,73582.3,0.15,-21.67,-21.67,0,*40
1515755128.04,48631,9.0,73580.3,0.15,-21.47,-21.47,0,*41
1515755129.26,48632,8.94,73576.3,0.15,-21.63,-21.53,0,*41
1515755130.46,48633,9.0,73580.8,0.15,-21.77,-21.77,0,*43
1515755131.65,48634,9.0,73582.8,0.15,-21.39,-21.47,0,*4D
1515755132.9,48635,9.0,73582.0,0.17,-21.53,-21.47,0,*42
1515755134.1,48636,9.0,73582.0,0.15,-21.63,-21.77,0,*43
1515755135.3,48637,8.94,73576.3,0.15,-21.77,-21.93,0,*4D
1515755136.49,48638,9.0,73580.3,0.15,-21.39,-21.39,0,*48
1515755137.69,48639,8.94,73578.8,0.15,-21.93,-22.03,0,*43
1515755138.92,48640,9.0,73580.3,0.15,-21.83,-21.93,0,*46
1515755140.14,48641,9.0,73578.8,0.15,-21.83,-21.77,0,*4D
1515755141.34,48642,9.0,73580.0,0.15,-21.39,-21.47,0,*4C
1515755142.59,48643,9.0,73578.3,0.15,-21.23,-21.33,0,*45
1515755143.81,48644,9.0,73580.8,0.15,-21.67,-21.77,0,*42
1515755145.03,48645,9.0,73580.0,0.15,-21.63,-21.67,0,*46
1515755146.28,48646,9.0,73578.8,0.17,-21.23,-21.39,0,*48
1515755147.52,48647,9.0,73582.8,0.17,-21.33,-21.39,0,*48
1515755148.74,48648,9.0,73580.8,0.15,-21.33,-21.47,0,*4C
1515755149.99,48649,8.94,73578.3,0.17,-21.67,-21.77,0,*4D
1515755151.23,48650,9.0,73582.8,0.17,-21.63,-21.67,0,*40
1515755152.48,48651,9.0,73580.3,0.17,-21.23,-21.39,0,*4E
1515755153.69,48652,9.0,73580.5,0.17,-21.63,-21.77,0,*43
1515755154.93,48653,9.0,73578.8,0.17,-21.39,-21.53,0,*4B
1515755156.18,48654,9.0,73578.3,0.17,-21.39,-21.53,0,*4C
1515755157.37,48655,8.94,73578.5,0.19,-21.73,-21.77,0,*4B
1515755158.59,48656,9.0,73580.0,0.19,-21.57,-21.73,0,*4A
1515755159.81,48657,9.0,73582.5,0.19,-21.57,-21.73,0,*4B
1515755161.0,48658,9.0,73582.0,0.19,-21.63,-21.77,0,*47
1515755162.21,48659,8.94,73576.5,0.21,-21.63,-21.73,0,*49
1515755163.41,48660,9.0,73580.0,0.19,-21.77,-21.73,0,*4D
1515755164.63,48661,9.0,73578.3,0.19,-21.33,-21.43,0,*4F
1515755165.83,48662,9.0,73580.0,0.19,-21.73,-21.77,0,*4F
1515755167.04,48663,9.0,73582.5,0.19,-21.43,-21.57,0,*4F
1515755168.23,48664,9.0,73580.5,0.19,-21.63,-21.77,0,*48
1515755169.48,48665,9.0,73580.0,0.21,-21.57,-21.77,0,*45
1515755170.72,48666,8.94,73574.5,0.21,-21.27,-21.43,0,*46
1515755171.94,48667,9.0,73576.8,0.23,-21.27,-21.43,0,*45
1515755173.19,48668,9.0,73582.5,0.21,-21.27,-21.47,0,*4C
1515755174.41,48669,9.0,73582.0,0.23,-21.39,-21.53,0,*45
1515755175.66,48670,8.94,73578.3,0.23,-21.53,-21.57,0,*45
1515755176.88,48671,8.94,73576.8,0.27,-21.33,-21.63,0,*41
1515755178.12,48672,9.0,73582.8,0.23,-21.83,-21.83,0,*43
1515755179.35,48673,9.0,73576.0,0.23,-22.17,-22.37,0,*40
1515755180.57,48674,9.0,73576.3,0.23,-21.83,-22.03,0,*4E
1515755181.79,48675,9.0,73576.0,0.27,-21.63,-21.83,0,*4E
1515755183.04,48676,9.0,73580.5,0.23,-21.57,-21.83,0,*4E
1515755184.29,48677,9.0,73576.8,0.23,-21.67,-21.83,0,*4C
1515755185.53,48678,9.0,73576.8,0.29,-21.63,-21.83,0,*4D
1515755186.76,48679,9.0,73580.0,0.27,-21.53,-21.77,0,*4A
1515755187.98,48680,9.0,73578.3,0.27,-21.39,-21.53,0,*46
1515755189.23,48681,9.0,73580.3,0.27,-21.53,-21.83,0,*46
1515755190.46,48682,9.0,73576.5,0.27,-21.47,-21.67,0,*4A
1515755191.68,48683,9.0,73582.3,0.27,-21.83,-22.11,0,*41
1515755192.9,48684,9.0,73580.0,0.27,-21.77,-21.83,0,*45
1515755194.17,48685,9.0,73580.8,0.29,-21.67,-21.83,0,*4B
1515755195.39,48686,9.0,73580.5,0.27,-21.83,-22.11,0,*44
1515755196.62,48687,9.0,73578.8,0.27,-21.77,-21.87,0,*42
1515755197.85,48688,9.0,73578.8,0.27,-21.87,-22.11,0,*4E
1515755199.07,48689,9.0,73580.8,0.27,-21.77,-21.97,0,*4D
1515755200.31,48690,9.0,73576.5,0.29,-21.83,-22.11,0,*4D
1515755201.56,48691,9.0,73582.5,0.29,-21.83,-22.11,0,*4C
1515755202.8,48692,9.0,73580.3,0.29,-22.17,-22.41,0,*44
1515755204.07,48693,9.0,73580.0,0.29,-22.47,-22.73,0,*41
1515755205.29,48694,9.0,73576.8,0.29,-22.41,-22.63,0,*41
1515755206.54,48695,9.0,73576.5,0.29,-22.57,-22.77,0,*42
1515755207.76,48696,9.0,73578.3,0.27,-22.31,-22.57,0,*4D
1515755208.96,48697,9.0,73578.3,0.23,-22.37,-22.63,0,*49
1515755210.16,48698,9.0,73576.3,0.27,-22.41,-22.83,0,*4D
1515755211.38,48699,9.0,73580.8,0.27,-22.83,-23.23,0,*49
1515755212.61,48700,9.0,73582.3,0.23,-22.37,-22.77,0,*43
1515755213.83,48701,9.0,73582.3,0.23,-22.21,-22.63,0,*40
1515755215.05,48702,9.0,73580.8,0.27,-22.41,-22.73,0,*40
1515755216.25,48703,9.0,73578.3,0.23,-22.53,-22.83,0,*49
1515755217.5,48704,9.0,73580.5,0.23,-22.47,-22.77,0,*40
1515755218.69,48705,9.0,73582.0,0.23,-22.63,-22.87,0,*48
1515755219.92,48706,9.0,73576.3,0.23,-22.47,-22.67,0,*43
1515755221.17,48707,9.0,73580.5,0.23,-22.77,-23.19,0,*49
1515755222.4,48708,9.0,73580.8,0.23,-22.31,-22.63,0,*48
1515755223.63,48709,9.0,73576.3,0.21,-22.57,-22.93,0,*44
1515755224.85,48710,9.0,73580.3,0.21,-22.11,-22.53,0,*42
1515755226.07,48711,9.0,73576.3,0.21,-22.37,-22.67,0,*40
1515755227.28,48712,9.0,73580.5,0.21,-22.41,-22.83,0,*48
1515755228.49,48713,9.0,73582.3,0.19,-22.53,-22.87,0,*45
1515755229.71,48714,9.0,73580.0,0.23,-22.21,-22.53,0,*47
1515755230.95,48715,9.0,73576.5,0.21,-22.41,-22.73,0,*40
1515755232.2,48716,9.0,73578.0,0.21,-22.73,-23.09,0,*4E
1515755233.42,48717,9.0,73582.0,0.21,-22.67,-22.93,0,*48
1515755234.63,48718,9.0,73578.5,0.21,-22.07,-22.37,0,*4F
1515755235.85,48719,9.0,73576.5,0.21,-22.11,-22.53,0,*4B
1515755237.07,48720,9.0,73578.8,0.21,-22.53,-22.87,0,*4E
1515755238.29,48721,9.0,73582.5,0.21,-22.37,-22.57,0,*40
1515755239.54,48722,9.0,73576.5,0.23,-21.87,-22.21,0,*48
1515755240.78,48723,9.0,73580.5,0.21,-22.41,-22.73,0,*45
1515755242.0,48724,9.0,73580.0,0.21,-22.11,-22.53,0,*45
1515755243.25,48725,8.94,73572.5,0.21,-22.83,-23.23,0,*49
1515755244.45,48726,9.0,73578.0,0.19,-22.67,-23.09,0,*43
1515755245.7,48727,9.0,73576.8,0.21,-22.93,-23.33,0,*4B
1515755246.93,48728,9.0,73576.5,0.19,-22.53,-23.03,0,*40
1515755248.17,48729,9.0,73582.3,0.21,-22.41,-22.73,0,*4F
1515755249.38,48730,9.0,73578.0,0.19,-22.41,-22.73,0,*4C
1515755250.6,48731,9.0,73578.5,0.21,-22.27,-22.67,0,*43
1515755251.83,48732,9.0,73582.3,0.21,-22.53,-22.87,0,*4D
1515755253.08,48733,9.0,73580.8,0.21,-22.93,-23.23,0,*4F
1515755254.28,48734,9.0,73580.3,0.19,-22.53,-22.93,0,*45
1515755255.53,48735,9.0,73580.3,0.21,-22.67,-23.03,0,*40
1515755256.77,48736,9.0,73580.3,0.21,-22.67,-23.03,0,*43
1515755257.97,48737,9.0,73582.8,0.19,-22.67,-23.09,0,*43
1515755259.22,48738,9.0,73578.5,0.19,-22.73,-23.19,0,*48
1515755260.44,48739,9.0,73582.0,0.21,-22.41,-22.87,0,*45
1515755261.65,48740,9.0,73576.3,0.21,-22.41,-22.87,0,*4B
1515755262.87,48741,9.0,73580.0,0.21,-22.41,-22.87,0,*4A
1515755264.11,48742,9.0,73576.8,0.19,-23.53,-23.95,0,*42
1515755265.33,48743,9.0,73582.8,0.19,-22.87,-23.33,0,*47
1515755266.55,48744,9.0,73578.8,0.21,-22.67,-23.09,0,*4C
1515755267.77,48745,9.0,73576.8,0.19,-22.83,-23.33,0,*45
1515755269.04,48746,9.0,73578.8,0.21,-22.73,-23.19,0,*4A
1515755270.24,48747,9.0,73576.8,0.19,-22.53,-22.83,0,*40
1515755271.47,48748,9.0,73578.3,0.19,-22.73,-23.09,0,*4E
1515755272.69,48749,9.0,73580.3,0.19,-22.83,-23.23,0,*48
1515755273.92,48750,9.0,73578.5,0.19,-23.09,-23.49,0,*4F
1515755275.13,48751,9.0,73578.8,0.17,-22.93,-23.39,0,*45
1515755276.4,48752,9.0,73576.5,0.17,-23.29,-23.69,0,*43
1515755277.61,48753,9.0,73574.8,0.17,-22.93,-23.39,0,*47
1515755278.83,48754,9.0,73576.5,0.19,-23.33,-23.79,0,*41
1515755280.1,48755,9.0,73576.0,0.17,-22.77,-23.29,0,*4A
1515755281.37,48756,9.0,73578.0,0.17,-22.77,-23.29,0,*49
1515755282.58,48757,9.0,73582.0,0.17,-22.63,-23.13,0,*44
1515755283.81,48758,9.0,73576.5,0.17,-22.57,-22.97,0,*41
1515755285.07,48759,9.0,73582.8,0.17,-22.77,-23.29,0,*46
1515755286.29,48760,9.0,73578.8,0.17,-22.87,-23.13,0,*4A
1515755287.53,48761,9.0,73576.3,0.17,-22.73,-23.13,0,*40
1515755288.73,48762,9.0,73582.0,0.15,-22.97,-23.43,0,*4E
1515755289.94,48763,9.0,73578.8,0.17,-22.87,-23.39,0,*41
1515755291.15,48764,9.0,73578.3,0.17,-22.87,-23.39,0,*46
1515755292.35,48765,9.0,73576.0,0.15,-22.87,-23.43,0,*48
1515755293.61,48766,9.0,73578.3,0.15,-23.53,-24.21,0,*40
1515755294.82,48767,9.0,73580.0,0.15,-23.39,-23.99,0,*49
1515755296.04,48768,9.0,73578.0,0.15,-22.93,-23.29,0,*4C
1515755297.24,48769,9.0,73578.5,0.15,-23.09,-23.59,0,*48
1515755298.45,48770,9.0,73580.5,0.15,-22.93,-23.43,0,*49
1515755299.7,48771,9.0,73578.0,0.15,-23.29,-23.85,0,*42
1515755300.91,48772,9.0,73576.3,0.17,-23.13,-23.59,0,*4B
1515755302.12,48773,9.0,73580.5,0.15,-22.97,-23.43,0,*4E
1515755303.34,48774,9.0,73578.0,0.15,-22.77,-23.39,0,*4A
1515755304.54,48775,9.0,73580.3,0.15,-22.87,-23.43,0,*49
1515755305.78,48776,9.0,73576.5,0.15,-22.73,-23.29,0,*4D
1515755307.02,48777,9.0,73576.0,0.15,-23.23,-23.69,0,*4C
1515755308.27,48778,9.0,73576.0,0.15,-23.29,-23.85,0,*4B
1515755309.49,48779,9.0,73576.8,0.11,-23.43,-24.05,0,*4D
1515755310.72,48780,9.0,73580.0,0.13,-22.97,-23.43,0,*44